Tracking 25953 objects as of 16-Aug-2022
HD Live streaming from Space Station
objects crossing your sky now

SL-12 R/B(AUX MOTOR)

Track SL-12 R/B(AUX MOTOR) now!
10-day predictions


NORAD ID: 19535
Int'l Code: 1988-085F
Perigee: 555.1 km
Apogee: 17,658.1 km
Inclination: 65.3 °
Period: 319.4 minutes
Semi major axis: 15477 km
RCS: 0.703 m2 (medium)
Launch date: September 16, 1988
Source: Commonwealth of Independent States (former USSR) (CIS)
Launch site: TYURATAM MISSILE AND SPACE COMPLEX (TTMTR)

Note: This is a ROCKET BODY
aabbcc
Your satellite tracking list
Your tracking list is empty




NASA's NSSDC Master Catalog

Two Line Element Set (TLE):
1 19535U 88085F   22227.97258078  .00000095  00000-0  37110-3 0  9992
2 19535  65.2646  77.4420 5525066  86.5116 331.9878  4.50866471535399
Source of the keplerian elements: AFSPC